Location: Hawks Ness
(60.2333°N, 1.1667°W)
Time: 16:05:42
(UTC+00:00)

Cosmos 2228 - Pass Details

Date: 22 October 2019
Orbit: 588 x 620 km, 82.5° (Epoch: 17 November)

Event Time Altitude Azimuth Distance (km) Brightness Sun altitude
Rises 03:37:01 0° 347° (NNW) 2,859 6.6 -25.5°
Reaches altitude 10° 03:39:18 10° 352° (N) 1,947 5.8 -25.2°
Maximum altitude 03:43:31 54° 70° (ENE) 729 3.7 -24.8°
Drops below altitude 10° 03:47:41 10° 148° (SSE) 1,921 5.7 -24.3°
Sets 03:49:55 0° 153° (SSE) 2,816 6.5 -24.0°
